User: anonymous   Login
Location: Caltech
(34.1382°N, 118.1253°W)
Time: 19:48:13
(UTC-07:00)
Language:

Cosmos 44 Rocket - Orbit

View from above orbital plane
View from above orbital plane
View from above satellite
View from above satellite

Ground track
Ground track

The orbit data is extracted from the following two-line orbital elements,

1   877U 64053B   16146.83839113  .00000036  00000-0  73147-5 0  9990
2   877  65.0792 344.0925 0083532 264.2935  94.9118 14.59241278744990
Epoch (UTC): 25 May 2016 20:07:16
Eccentricity: 0.0083532
inclination: 65.0792°
perigee height: 636 km
apogee height: 755 km
right ascension of ascending node: 344.0925°
argument of perigee: 264.2935°
revolutions per day: 14.59241278
mean anomaly at epoch: 94.9118°
orbit number at epoch: 74499

The dashed part of the orbit path shows where the satellite is in the earth's shadow,  

DLR